Hourly Weather Roundup
Issued by NWS Central Illinois

Home | Current Version | Previous Version | Text Only | Print | Product List | Glossary On
Versions: 1 2 3 4 5 6 7 8 9 10 11 12 13 14 15 16 17 18 19 20 21 22 23 24 25 26 27 28 29 30 31 32 33 34 35 36 37 38 39 40 41 42 43 44 45 46 47 48 49 50
000
NZUS43 KILX 211010
HWRILX

AREA WEATHER ROUNDUP
NATIONAL WEATHER SERVICE, LINCOLN IL
500 AM CDT SUN SEP 21 2014


CITY           SKY/WX    TMP DP  RH WIND       PRES   REMARKS
BLOOMINGTON    CLEAR     60  54  80 NW14      29.90R
CHAMPAIGN      PTCLDY    64  59  83 NW14G24   29.88R
DECATUR        CLEAR     65  56  72 NW20G26   29.91R
FLORA          MOCLDY    71  68  92 W9        29.89R
GALESBURG      CLEAR     53  51  92 W7        29.93R
JACKSONVILLE   CLEAR     63  59  87 NW6       29.97R
LACON          CLEAR     57  51  79 W7        29.88R
LAWRENCEVILLE  MOCLDY    69  67  93 W6        29.87F
LITCHFIELD     PTCLDY    68  66  94 NW12G18   29.92R
$$


CITY           SKY/WX    TMP DP  RH WIND       PRES   REMARKS
LINCOLN        CLEAR     61  55  80 W5        29.90R
MACOMB         CLEAR     55  53  94 W8        29.97S
MATTOON        PTCLDY    69  67  93 W10       29.87R
MT CARMEL AP   CLOUDY    70  68  94 W7        29.87S
OLNEY-NOBLE AP CLOUDY    68  68 100 CALM      29.88S FOG
PARIS          CLEAR     68  67  98 W8        29.86R FOG
PEORIA         CLEAR     60  52  74 W6        29.92R
PONTIAC        CLEAR     61  55  82 W7        29.87R
RANTOUL        CLEAR     64  58  80 NW13G22   29.88R
ROBINSON       PTCLDY    71  70  95 W9        29.86F
SPRINGFIELD    CLEAR     63  57  81 NW9       29.94R
TAYLORVILLE    MOCLDY    66  61  82 N14G21    29.92R
$$

...REGIONAL REPORTS...


CITY           SKY/WX    TMP DP  RH WIND       PRES   REMARKS
CHICAGO O`HARE CLEAR     59  53  80 W15       29.77R
KANKAKEE       CLEAR     60  56  86 W13G21    29.84R
MOLINE         CLEAR     56  51  84 W8        29.90S
MOUNT VERNON   CLOUDY    72  66  83 W3        29.90S
PITTSFIELD     CLEAR     62  54  75 NW6       29.99R
QUINCY         CLEAR     58  53  84 NW6       29.98R
ROCKFORD       CLEAR     56  51  84 W10       29.84R
$$


CITY           SKY/WX    TMP DP  RH WIND       PRES   REMARKS
BURLINGTON     CLEAR     56  53  90 W6        29.95S
CEDAR RAPIDS   CLEAR     55  53  93 W13       29.92R
DES MOINES     CLEAR     57  50  77 W10       30.00R
KIRKSVILLE     CLEAR     55  51  86 NW6       30.03R
OTTUMWA        CLEAR     54  51  90 W8        29.98R
ST LOUIS       PTCLDY    73  68  84 W10       29.94R
$$


CITY           SKY/WX    TMP DP  RH WIND       PRES   REMARKS
TERRE HAUTE    CLEAR     68  66  93 W8        29.84F
EVANSVILLE     TSTM      71  67  87 VRB7      29.90S FOG
INDIANAPOLIS   MOCLDY    69  66  90 SW10      29.81S
LAFAYETTE      MOCLDY    67  66  97 W13       29.80R
MADISON        PTCLDY    56  51  84 VRB7      29.76R
MILWAUKEE      PTCLDY    58  50  75 W12       29.72R
$$





USA.gov is the U.S. government's official web portal to all federal, state and local government web resources and services.